EN

Hourly Weather Truseni

Today, 12 April, Monday

Time Temperature Precipitation Wind Pressure Humidity
00:00 +9°C° 0 mm 1 mps 755 mmHg 47%
01:00 +9°C° 0 mm 1 mps 755 mmHg 48%
02:00 +8°C° 0 mm 1 mps 754 mmHg 50%
03:00 +8°C° 0 mm 1 mps 754 mmHg 51%
04:00 +8°C° 0 mm 1 mps 754 mmHg 52%
05:00 +7°C° 0 mm 1 mps 754 mmHg 53%
06:00 +9°C° 0 mm 1 mps 754 mmHg 51%
07:00 +10°C° 0 mm 1 mps 754 mmHg 48%
08:00 +11°C° 0 mm 1 mps 754 mmHg 46%
09:00 +13°C° 0 mm 1 mps 753 mmHg 43%
10:00 +14°C° 0 mm 1 mps 753 mmHg 39%
11:00 +16°C° 0 mm 2 mps 753 mmHg 36%
12:00 +16°C° 0 mm 2 mps 753 mmHg 35%
13:00 +17°C° 0 mm 2 mps 752 mmHg 34%
14:00 +18°C° 0 mm 2 mps 752 mmHg 32%
15:00 +18°C° 0 mm 2 mps 752 mmHg 34%
16:00 +18°C° 0 mm 2 mps 751 mmHg 35%
17:00 +18°C° 0 mm 2 mps 751 mmHg 35%
18:00 +16°C° 0 mm 2 mps 751 mmHg 42%
19:00 +14°C° 0 mm 2 mps 751 mmHg 48%
20:00 +13°C° 0 mm 2 mps 752 mmHg 54%
21:00 +12°C° 0 mm 1 mps 751 mmHg 61%
22:00 +11°C° 0 mm 1 mps 751 mmHg 67%
23:00 +9°C° 0 mm 0 mps 751 mmHg 73%

Tomorrow, 13 April, Tuesday

Time Temperature Precipitation Wind Pressure Humidity
00:00 +9°C° 0 mm 0 mps 751 mmHg 73%
01:00 +9°C° 0 mm 0 mps 751 mmHg 73%
02:00 +9°C° 0 mm 0 mps 750 mmHg 73%
03:00 +9°C° 0 mm 0 mps 750 mmHg 73%
04:00 +9°C° 0 mm 0 mps 750 mmHg 72%
05:00 +10°C° 0 mm 1 mps 750 mmHg 71%
06:00 +10°C° 0 mm 0 mps 750 mmHg 70%
07:00 +10°C° 0 mm 0 mps 750 mmHg 69%
08:00 +11°C° 0 mm 0 mps 750 mmHg 67%
09:00 +11°C° 0 mm 0 mps 750 mmHg 65%
10:00 +12°C° 0 mm 0 mps 750 mmHg 64%
11:00 +12°C° 0 mm 0 mps 750 mmHg 62%
12:00 +14°C° 0 mm 1 mps 750 mmHg 63%
13:00 +14°C° 0 mm 1 mps 749 mmHg 64%
14:00 +14°C° 0 mm 2 mps 749 mmHg 66%
15:00 +13°C° 0 mm 2 mps 749 mmHg 71%
16:00 +13°C° 0 mm 2 mps 749 mmHg 77%
17:00 +12°C° 0 mm 2 mps 748 mmHg 83%
18:00 +10°C° 0 mm 2 mps 748 mmHg 85%
19:00 +10°C° 0 mm 3 mps 749 mmHg 88%
20:00 +9°C° 0 mm 3 mps 749 mmHg 91%
21:00 +9°C° 0 mm 3 mps 748 mmHg 91%
22:00 +9°C° 0 mm 3 mps 748 mmHg 91%
23:00 +9°C° 0 mm 3 mps 748 mmHg 91%

Day after tomorrow, 14 April, Wednesday

Time Temperature Precipitation Wind Pressure Humidity
00:00 +8°C° 0 mm 3 mps 748 mmHg 92%
01:00 +8°C° 0 mm 3 mps 747 mmHg 92%
02:00 +8°C° 0 mm 3 mps 747 mmHg 92%
03:00 +8°C° 0 mm 3 mps 747 mmHg 91%
04:00 +8°C° 0 mm 3 mps 747 mmHg 91%
05:00 +8°C° 0 mm 3 mps 747 mmHg 90%
06:00 +7°C° 0 mm 4 mps 747 mmHg 89%
07:00 +7°C° 0 mm 4 mps 747 mmHg 88%
08:00 +7°C° 0 mm 5 mps 747 mmHg 87%
09:00 +7°C° 0 mm 4 mps 747 mmHg 86%
10:00 +7°C° 0 mm 4 mps 747 mmHg 85%
11:00 +7°C° 0 mm 4 mps 747 mmHg 85%
12:00 +8°C° 0.1 mm 4 mps 747 mmHg 83%
13:00 +8°C° 0.1 mm 4 mps 746 mmHg 81%
14:00 +8°C° 0.1 mm 4 mps 746 mmHg 80%
15:00 +8°C° 0.1 mm 4 mps 746 mmHg 80%
16:00 +10°C° 0.1 mm 4 mps 746 mmHg 79%
17:00 +10°C° 0.1 mm 4 mps 745 mmHg 79%
18:00 +8°C° 0.2 mm 4 mps 745 mmHg 82%
19:00 +8°C° 0.2 mm 4 mps 746 mmHg 85%
20:00 +7°C° 0.2 mm 4 mps 746 mmHg 88%
21:00 +7°C° 0.3 mm 4 mps 746 mmHg 89%
22:00 +7°C° 0.3 mm 4 mps 745 mmHg 91%
23:00 +7°C° 0.3 mm 3 mps 745 mmHg 93%

15 April, Thursday

Time Temperature Precipitation Wind Pressure Humidity
00:00 +7°C° 0.1 mm 3 mps 745 mmHg 93%
01:00 +7°C° 0.1 mm 2 mps 745 mmHg 94%
02:00 +8°C° 0.1 mm 2 mps 745 mmHg 94%
03:00 +8°C° 0 mm 2 mps 745 mmHg 94%
04:00 +9°C° 0 mm 1 mps 745 mmHg 95%
05:00 +9°C° 0 mm 1 mps 745 mmHg 95%
06:00 +9°C° 0.2 mm 1 mps 745 mmHg 94%
07:00 +9°C° 0.2 mm 1 mps 745 mmHg 94%
08:00 +9°C° 0.2 mm 1 mps 745 mmHg 93%
09:00 +8°C° 0.5 mm 2 mps 745 mmHg 93%
10:00 +8°C° 0.5 mm 2 mps 745 mmHg 92%
11:00 +8°C° 0.5 mm 2 mps 746 mmHg 92%
12:00 +8°C° 0.6 mm 2 mps 746 mmHg 92%
13:00 +8°C° 0.6 mm 2 mps 746 mmHg 93%
14:00 +8°C° 0.6 mm 3 mps 746 mmHg 93%
15:00 +8°C° 0.5 mm 3 mps 746 mmHg 94%
16:00 +8°C° 0.5 mm 3 mps 745 mmHg 94%
17:00 +8°C° 0.5 mm 3 mps 745 mmHg 95%
18:00 +7°C° 0.8 mm 3 mps 745 mmHg 95%
19:00 +7°C° 0.8 mm 3 mps 745 mmHg 95%
20:00 +7°C° 0.8 mm 3 mps 745 mmHg 95%
21:00 +7°C° 1 mm 3 mps 745 mmHg 95%
22:00 +7°C° 1 mm 3 mps 745 mmHg 95%
23:00 +5°C° 1 mm 3 mps 745 mmHg 95%

16 April, Friday

Time Temperature Precipitation Wind Pressure Humidity
00:00 +5°C° 1 mm 4 mps 744 mmHg 95%
01:00 +5°C° 1 mm 4 mps 744 mmHg 95%
02:00 +5°C° 1 mm 4 mps 744 mmHg 95%
03:00 +5°C° 0.4 mm 4 mps 744 mmHg 95%
04:00 +4°C° 0.4 mm 4 mps 744 mmHg 95%
05:00 +4°C° 0.4 mm 4 mps 743 mmHg 94%
06:00 +5°C° 0.1 mm 4 mps 743 mmHg 94%
07:00 +5°C° 0.1 mm 4 mps 743 mmHg 93%
08:00 +6°C° 0.1 mm 4 mps 744 mmHg 93%
09:00 +6°C° 0.1 mm 4 mps 743 mmHg 92%
10:00 +7°C° 0.1 mm 5 mps 743 mmHg 92%
11:00 +7°C° 0.1 mm 5 mps 743 mmHg 91%
12:00 +8°C° 0.9 mm 6 mps 743 mmHg 91%
13:00 +8°C° 0.9 mm 6 mps 743 mmHg 91%
14:00 +8°C° 0.9 mm 7 mps 743 mmHg 90%
15:00 +8°C° 0.9 mm 7 mps 744 mmHg 91%
16:00 +8°C° 0.9 mm 7 mps 744 mmHg 91%
17:00 +8°C° 0.9 mm 7 mps 744 mmHg 91%
18:00 +8°C° 0.1 mm 7 mps 745 mmHg 91%
19:00 +8°C° 0.1 mm 7 mps 745 mmHg 92%
20:00 +8°C° 0.1 mm 7 mps 746 mmHg 92%
21:00 +8°C° 0.2 mm 7 mps 746 mmHg 92%
22:00 +8°C° 0.2 mm 7 mps 746 mmHg 91%
23:00 +6°C° 0.2 mm 7 mps 747 mmHg 91%

17 April, Saturday

Time Temperature Precipitation Wind Pressure Humidity
00:00 +7°C° 0.2 mm 6 mps 747 mmHg 90%
01:00 +7°C° 0.2 mm 5 mps 748 mmHg 89%
02:00 +6°C° 0.2 mm 5 mps 748 mmHg 88%
03:00 +6°C° 0 mm 4 mps 749 mmHg 88%
04:00 +6°C° 0 mm 4 mps 749 mmHg 88%
05:00 +6°C° 0 mm 4 mps 750 mmHg 88%
06:00 +6°C° 0 mm 4 mps 750 mmHg 86%
07:00 +6°C° 0 mm 4 mps 751 mmHg 84%
08:00 +7°C° 0 mm 3 mps 751 mmHg 82%
09:00 +8°C° 0 mm 4 mps 751 mmHg 73%
10:00 +10°C° 0 mm 4 mps 752 mmHg 63%
11:00 +12°C° 0 mm 5 mps 752 mmHg 54%
12:00 +12°C° 0 mm 4 mps 752 mmHg 53%
13:00 +13°C° 0 mm 4 mps 752 mmHg 51%
14:00 +13°C° 0 mm 4 mps 752 mmHg 50%
15:00 +13°C° 0 mm 4 mps 752 mmHg 53%
16:00 +13°C° 0 mm 4 mps 752 mmHg 57%
17:00 +12°C° 0 mm 5 mps 752 mmHg 60%
18:00 +11°C° 0.1 mm 4 mps 752 mmHg 69%
19:00 +10°C° 0.1 mm 4 mps 752 mmHg 78%
20:00 +7°C° 0.1 mm 4 mps 752 mmHg 87%
21:00 +7°C° 0 mm 4 mps 752 mmHg 88%
22:00 +7°C° 0 mm 4 mps 753 mmHg 90%
23:00 +6°C° 0 mm 4 mps 753 mmHg 92%
Show more

We Need Your Consent

Meteoprog and our Service Providers may store and access personal data such as cookies, device identifiers or other similar technologies on your device and process such data to personalise content and ads, as well as provide social media features and to analyse the traffic.

  • Store and/or access information on your device

    Cookies, device identifiers or other information can be stored or accessed on your device for the purposes indicated above.

  • Personalised ads and content, ad and content measurement, audience insights, and products development

    Ads and content can be personalised based on a profile. More data can be added to better personalise ads and content. Ad and content performance can be measured. Insights about the audience who saw the ads and content can be derived. Such data can be used to develop or improve user’s experience, systems and software.

By clicking ‘I Agree’ you will allow the use of indicated cookies, device identifiers, web beacons or other similar technologies. Your settings can be changed in the browser on your device.

For certain purposes, legitimate interests may be relied on, rather than consent. You can read more about this in our Privacy and Cookie Policy.